Tracking 19976 objects as of 15-Nov-2019
Live streaming from Space Station
objects crossing your sky now
Track the group of recently launched Starlink satellites

SL-23 DEB

Track SL-23 DEB now!


NORAD ID: 43385
Int'l Code: 2009-009D
Perigee: 1,226.7 km
Apogee: 35,785.6 km
Inclination: 33.9 °
Period: 650.8 minutes
Semi major axis: 24877 km
RCS: Unknown
Launch date: February 26, 2009
Source: Commonwealth of Independent States (former USSR) (CIS)
Launch site: TYURATAM MISSILE AND SPACE COMPLEX (TTMTR)

Note: This is SATELLITE DEBRIS
aabbcc
Your satellite tracking list
Your tracking list is empty




NASA's NSSDC Master Catalog

Two Line Element Set (TLE):
1 43385U 09009D   19317.56938687  .00000006  00000-0  00000+0 0  9999
2 43385  33.9434 121.7977 6945909  78.9448 346.3930  2.21259435 83841
Source of the keplerian elements: AFSPC